Flag Weather past 2 weeks in Rio Branco, Acre, Brazil

Now
72 °F

Broken clouds.


Feels Like: 67 °F
Forecast: 70 / 82 °F
Wind: 2 mph from Southwest

Location: Rio Branco Airport

Current Time: Nov 28, 2014 at 7:30:11 AM

Latest Report: Nov 28, 2014 at 7:00 AM


Visibility: N/A

Pressure: 29.92 "Hg

Humidity: 94%

Dew point: 70 °F

Location of Rio BrancoLocation

Historic Weather in Rio Branco — Graph

°F

Rio Branco temperature yesterday

Maximum temperature yesterday: 88 °F (at 2:00 PM)
Minimum temperature yesterday: 70 °F (at 9:00 PM)
Average temperature yesterday: 78 °F

Past Weeks' High & Low Weather Summary

 TemperatureHumidityPressure
High91 °F (Nov 22, 2:00 PM)100% (Nov 13, 7:00 PM)30.01 "Hg (Nov 13, 7:00 PM)
Low36 °F (Nov 13, 9:00 PM)24% (Nov 13, 5:00 PM)29.65 "Hg (Nov 19, 4:00 PM)
Average77 °F80%29.83 "Hg
* Reported Nov 13 6:00 AM — Nov 28 6:00 AM, Rio Branco, Weather by CustomWeather, © 2014

Note: Actual official high and low records may vary slightly from our data, if they occured in-between our weather recording intervals... More about our weather records

Advertising

Rio Branco weather history for previous 24 hours

 ConditionsComfort  
Time TempWeatherWind HumidityBarometerVisibility
6:00 AM
Nov 28
70 °FBroken clouds.2 mph94%29.89 "HgN/A
5:00 AM70 °FPassing clouds.5 mph94%29.89 "HgN/A
4:00 AM70 °FLight rain. Passing clouds.3 mph94%29.86 "HgN/A
3:00 AM70 °FLight rain. Partly cloudy.3 mph94%29.80 "HgN/A
2:00 AM70 °FPartly cloudy.5 mph94%29.80 "HgN/A
1:00 AM70 °FLight rain. Partly cloudy.3 mph94%29.83 "Hg5 mi
12:00 AM70 °FFog.6 mph94%29.86 "Hg3 mi
11:00 PM
Nov 27
72 °FLight rain. Partly cloudy.2 mph94%29.89 "Hg5 mi
10:00 PM70 °FRain. Partly cloudy.3 mph94%29.92 "Hg5 mi
9:00 PM70 °FRain. Partly cloudy.7 mph94%29.92 "Hg5 mi
8:00 PM72 °FClear.3 mph88%29.92 "Hg10 mi
7:00 PM73 °FThunderstorms. Passing clouds.10 mph83%29.86 "HgN/A
6:00 PM81 °FThundershowers. Scattered clouds.3 mph74%29.80 "HgN/A
5:00 PM84 °FScattered clouds.3 mph62%29.77 "HgN/A
4:00 PM86 °FScattered clouds.3 mph55%29.74 "HgN/A
3:00 PM86 °FScattered clouds.5 mph59%29.74 "HgN/A
2:00 PM88 °FBroken clouds.2 mph62%29.77 "HgN/A
1:00 PM86 °FBroken clouds.3 mph62%29.83 "HgN/A
12:00 PM86 °FPartly sunny.6 mph62%29.86 "HgN/A
11:00 AM86 °FPartly sunny.6 mph62%29.89 "HgN/A
10:00 AM84 °FSunny.6 mph66%29.89 "Hg10 mi
9:00 AM82 °FSunny.6 mph70%29.89 "Hg10 mi
8:00 AM79 °FBroken clouds.3 mph79%29.92 "HgN/A
7:00 AM73 °FBroken clouds.3 mph89%29.92 "HgN/A
Weather by CustomWeather, © 2014

See weather overviewHow to use our weather pages